Regional Weather Roundup
Issued by NWS Columbia, SC

Home | Current Version | Previous Version | Text Only | Print | Product List | Glossary On
Versions: 1 2 3 4 5 6 7 8 9 10 11 12 13 14 15 16 17 18 19 20 21 22 23 24 25 26 27 28
000
ASUS42 KCAE 232010
RWRCAE
REGIONAL WEATHER ROUNDUP
NATIONAL WEATHER SERVICE COLUMBIA SC
300 PM EST TUE JAN 23 2018

NOTE: "FAIR" INDICATES FEW OR NO CLOUDS BELOW 12,000 FEET WITH NO
SIGNIFICANT WEATHER AND/OR OBSTRUCTIONS TO VISIBILITY.

NOT ALL STATIONS ARE QUALITY CONTROLLED BY THE NATIONAL
WEATHER SERVICE. USE DATA WITH CAUTION...ESPECIALLY
DEWPOINT OBSERVATIONS.

SCZ001>056-GAZ040-063>065-077-232100-
...UPSTATE SOUTH CAROLINA...

CITY           SKY/WX    TMP DP  RH WIND       PRES   REMARKS
ANDERSON       FAIR      58  31  35 W20G25    29.89R
LIBERTY        FAIR      60  32  34 W13G22    29.84S
SPARTANBURG    FAIR      59  30  33 SW16G23   29.83R
CLEMSON        FAIR      58  32  37 W14G20    29.87S
GREENVILLE     FAIR      61  30  31 SW16G24   29.85R
GREENWOOD      FAIR      57  32  38 SW15G25   29.91S
GREER          FAIR      60  31  33 SW17G25   29.84S
ROCK HILL      FAIR      61  31  32 W17G23    29.82S
CHESTER        FAIR      59  27  29 SW12G24   29.84S
LAURENS        FAIR      59  32  36 W16G25    29.87S


...CENTRAL SOUTH CAROLINA...

CITY           SKY/WX    TMP DP  RH WIND       PRES   REMARKS
COLUMBIA APT   FAIR      68  31  25 W20       29.85S
COLUMBIA OWENS FAIR      67  28  23 W14G24    29.86S
MCENTIRE ANGB  MOSUNNY   69  25  19 SW16G29   29.84S
ORANGEBURG     FAIR      70  34  26 W22       29.85F
SUMTER SHAW    FAIR      71  29  21 W20G29    29.80F
NEWBERRY       FAIR      57  32  38 W15G25    29.91S
AIKEN          FAIR      63  32  31 SW17G23   29.92S
BARNWELL         N/A     70  32  24 SW16      29.88S
MANNING        FAIR      72  23  16 MISG      29.84F
CAMDEN         FAIR      66  30  26 SW21G28   29.83S
LANCASTER      FAIR      63  27  25 SW20G28   29.83S


...EASTERN AND COASTAL SOUTH CAROLINA...

CITY           SKY/WX    TMP DP  RH WIND       PRES   REMARKS
MYRTLE BEACH   FAIR      75  57  53 W16G28    29.82S
N MYRTLE BCH   FAIR      59  54  83 SW15      29.80F
CONWAY         FAIR      73  50  43 SW14G29   29.80F
MARION         FAIR      72  43  35 W26G36    29.80R
HARTSVILLE     FAIR      70  34  26 SW10G17   29.80S
FLORENCE       FAIR      73  41  31 W20G26    29.79F
DARLINGTON     FAIR      70  36  28 W23G29    29.80R
CHARLESTON APT FAIR      76  49  38 W23G32    29.85S
MOUNT PLEASANT FAIR      72  61  68 SW12      29.85S
WALTERBORO     FAIR      70  41  35 SW20G25   29.88S
BEAUFORT       FAIR      75  50  41 W18G26    29.89


...EASTERN GEORGIA...

CITY           SKY/WX    TMP DP  RH WIND       PRES   REMARKS
AUGUSTA BUSH F FAIR      66  29  24 W21G26    29.90S
AUGUSTA DANIEL FAIR      64  30  27 SW9G22    29.91S
THOMSON        FAIR      61  33  35 NW12      29.98R
CLAXTON        FAIR      73  37  27 SW12G21   29.93F
SYLVANIA       FAIR      71  38  30 W13G21    29.92S
STATESBORO     FAIR      70  22  16 W16G22    29.92F
SAVANNAH       PTSUNNY   75  46  35 W22       29.91S


...SOUTHERN NORTH CAROLINA...

CITY           SKY/WX    TMP DP  RH WIND       PRES   REMARKS
CHARLOTTE      FAIR      62  29  28 W15G23    29.80R
MONROE         FAIR      62  32  32 W18G28    29.79S
WADESBORO      FAIR      65  25  21 SW10G23   29.79S
ROCKINGHAM     FAIR      66  34  30 W17G29    29.80R
RUTHERFORDTON  FAIR      63  28  26 W9        29.82R

$$




USA.gov is the U.S. government's official web portal to all federal, state and local government web resources and services.